Regional Weather Roundup
Issued by NWS

Home | Current Version | Previous Version | Graphics & Text | Print | Product List | Glossary On
Versions: 1 2 3 4 5 6 7 8 9 10 11 12 13 14 15 16 17 18 19 20 21 22 23 24 25 26 27 28 29 30 31 32 33 34 35 36 37 38 39 40 41 42 43 44 45 46 47 48 49 50
000
ASUS43 KLOT 221306
RWRIL

ILLINOIS REGIONAL WEATHER ROUNDUP
NATIONAL WEATHER SERVICE CHICAGO/ROMEOVILLE IL
800 AM CDT MON SEP 22 2014

NOTE: "FAIR" INDICATES FEW OR NO CLOUDS BELOW 12,000 FEET WITH NO
SIGNIFICANT WEATHER AND/OR OBSTRUCTIONS TO VISIBILITY.

* THESE STATIONS ARE NOT UNDER NWS QUALITY CONTROL. THEY ALSO MAY NOT
  REPORT WEATHER SUCH AS PRECIPITATION OR FOG.

ILZ001-002-007-009-015-016-024-221400-
NORTHWEST ILLINOIS

CITY           SKY/WX    TMP DP  RH WIND       PRES   REMARKS
MOLINE         SUNNY     46  44  93 CALM      30.30R
STERLING*      SUNNY     48  43  81 CALM      30.29R
SAVANNA*       FOG       44  43  95 CALM      30.29S VSB 1/2
$$

ILZ003-004-008-010-011-017-018-221400-
NORTH CENTRAL ILLINOIS

CITY           SKY/WX    TMP DP  RH WIND       PRES   REMARKS
ROCKFORD       SUNNY     46  42  86 CALM      30.30R
FREEPORT*      SUNNY     42  41  96 CALM      30.31R
ROCHELLE*      SUNNY     42  41  97 CALM      30.29S
DE KALB*       SUNNY     43  41  93 NW5       30.29R
PERU*          SUNNY     46  43  89 N5        30.29R
$$

ILZ005-006-012>014-019>023-221400-
NORTHEAST ILLINOIS

CITY           SKY/WX    TMP DP  RH WIND       PRES   REMARKS
CHICAGO-OHARE  MOSUNNY   48  40  73 N6        30.26R
CHICAGO-MIDWAY MOSUNNY   51  43  74 NW9       30.26R
AURORA         SUNNY     45  41  86 CALM      30.28R
LANSING*       PTSUNNY   50  45  85 NW5       30.26R
JOLIET*        SUNNY     47  42  84 N5        30.28R
WAUKEGAN       SUNNY     47  39  74 NW5       30.25S
DUPAGE AIRPORT SUNNY     47  41  80 NW5       30.27R
KANKAKEE*      SUNNY     49  45  85 NW5       30.28R
WHEELING       SUNNY     49  42  77 NW5       30.27R
MORRIS*        SUNNY     47  45  93 CALM      30.27R
ROMEOVILLE*    SUNNY     47  44  90 N3        30.28R
NORTHERLY ISL    N/A     53  45  74 N8          N/A
$$

LMZ740>746-221400-
SOUTHERN LAKE MICHIGAN

STATION/POSITION SKY/WX   TEMP    WIND        PRES    VSBY  WAVE
                          AIR SEA DIR/SP/G                  HT/PER
                          (F)     (DEG/KT/KT) (MB)    (MI)  (FT/S)
SOUTHERN BUOY              53 61  340/ 12/ 16 1024.0R         5/ 8
WAUKEGAN HARBOR            48     340/  5/  7   N/A
HARRISON CRIB              52     320/ 13/ 15   N/A
BURNHAM HARBOR             54     310/  8/ 10   N/A
CALUMET HARBOR             50     280/  3/  5 1023.2S
MICHIGAN CITY              49      90/  5/  7   N/A
MICHIGAN CITY 6N           51 63  110/  6/ 10   N/A           6/ 7
ST. JOSEPH                 51 65   90/  6/  8   N/A           5/ 8
$$

ILZ025>027-034>036-040-047-049-050-058-095>099-221400-
WEST-CENTRAL ILLINOIS

CITY           SKY/WX    TMP DP  RH WIND       PRES   REMARKS
QUINCY         SUNNY     51  48  89 N3        30.29R
GALESBURG*     SUNNY     45  45 100 N3        30.30R
MACOMB*        SUNNY     46  46  99 N3        30.31R
JACKSONVILLE*  SUNNY     51  51  97 CALM      30.29R
PITTSFIELD*    SUNNY     53  49  85 N3        30.29R
$$

ILZ028>032-037-038-041>044-048-051>054-059>061-221400-
CENTRAL ILLINOIS

CITY           SKY/WX    TMP DP  RH WIND       PRES   REMARKS
PONTIAC        SUNNY     46  46 100 CALM      30.27S
DECATUR        SUNNY     53  48  83 N5        30.28R
PEORIA         SUNNY     50  45  83 CALM      30.29R
LACON*         SUNNY     46  45  95 CALM      30.29R
LINCOLN*       SUNNY     50  48  91 CALM      30.27R
SPRINGFIELD    SUNNY     52  48  86 NE3       30.28R
TAYLORVILLE    SUNNY     48  48 100 N3        30.27S
$$

ILZ033-039-045-046-055>057-062-063-221400-
EAST-CENTRAL ILLINOIS

CITY           SKY/WX    TMP DP  RH WIND       PRES   REMARKS
CHAMPAIGN      MOSUNNY   49  46  90 N7        30.27R
DANVILLE*      SUNNY     48  46  93 NW3       30.24R
RANTOUL*       SUNNY     51  45  82 N6        30.27R
MATTOON        SUNNY     50  47  89 N6        30.25R
PARIS*         SUNNY     49  49  99 CALM      30.26R
$$

ILZ079-100>102-221400-
SOUTHWEST ILLINOIS

CITY           SKY/WX    TMP DP  RH WIND       PRES   REMARKS
ALTON          SUNNY     52  50  93 N5        30.27R
BELLEVILLE     SUNNY     55  52  91 N6        30.27R
CAHOKIA*       SUNNY     54  52  93 CALM      30.27R
SPARTA*        SUNNY     52  51  93 CALM      30.27R
$$

ILZ064>066-069>071-074>076-080>082-084>086-088>090-092>094-221400-
SOUTH-CENTRAL ILLINOIS

CITY           SKY/WX    TMP DP  RH WIND       PRES   REMARKS
CARBONDALE     SUNNY     53  50  89 VRB3      30.25R
CAIRO*         SUNNY     57  53  86 N5        30.25R
EFFINGHAM*     SUNNY     51  49  92 CALM      30.26R
MARION         SUNNY     54  52  94 N6        30.26R
MT. VERNON     SUNNY     52  46  82 CALM      30.26S
CENTRALIA*     SUNNY     52  49  90 CALM      30.25S
SALEM*         SUNNY     53  53  99 CALM      30.26R
METROPOLIS*    SUNNY     55  54  97 N5        30.23R
$$

ILZ067-068-072-073-078-083-087-091-221400-
SOUTHEAST ILLINOIS

CITY           SKY/WX    TMP DP  RH WIND       PRES   REMARKS
LAWRENCEVILLE  SUNNY     54  52  93 N5        30.25R
FLORA*         SUNNY     51  51  97 N6        30.26R
FAIRFIELD*     SUNNY    N/A N/A N/A N3        30.25S
HARRISBURG*    SUNNY     54  54  99 N6        30.26R
ROBINSON*      SUNNY     52  52  99 CALM      30.25R
CARMI*         SUNNY     55  55  99 CALM      30.25R
$$

ABBREVIATIONS USED IN REMARKS
   TC - TEMPERATURE IN CELSIUS
  WCI - WIND CHILL INDEX
   HX - HEAT INDEX
  VSB - VISIBILITY
$$




USA.gov is the U.S. government's official web portal to all federal, state and local government web resources and services.